Location: Brivio
(45.7333°N, 9.4500°E)
Time: 21:40:32
(UTC+00:00)

Cosmos 2278 Rocket - Pass Details

Date: 18 October 2019
Orbit: 840 x 846 km, 71.0° (Epoch: 18 November)

Event Time Altitude Azimuth Distance (km) Brightness Sun altitude
Rises 19:21:55 0° 238° (WSW) 3,396 5.9 -30.1°
Reaches altitude 10° 19:24:40 10° 249° (WSW) 2,465 5.2 -30.6°
Maximum altitude 19:29:35 30° 309° (NW) 1,490 3.9 -31.4°
Drops below altitude 10° 19:34:32 10° 10° (N) 2,480 4.7 -32.2°
Enters shadow 19:36:54 - 20° (NNE) 3,278 5.3 -32.6°
